Miami, FL

9:09 AM EDT on September 19, 2017 (GMT -0400)
Miami International

Weather History for KMIA - March, 2014

Change the Weather History Date:

Thursday, March 27, 2014

  Actual Average Record
Temperature  
Mean Temperature 71 °F 74 °F  
Max Temperature 79 °F 81 °F 91 °F (2015)
Min Temperature 62 °F 66 °F 46 °F (1947)
Degree Days  
Heating Degree Days 0 0  
Month to date heating degree days 0 8  
Since 1 July heating degree days 61 124  
Cooling Degree Days 6 9  
Month to date cooling degree days 239 211  
Year to date cooling degree days 660 533  
Growing Degree Days 20 (Base 50)    
Moisture  
Dew Point 56 °F    
Average Humidity 61    
Maximum Humidity 72    
Minimum Humidity 50    
Precipitation  
Precipitation 0.00 in 0.11 in 1.99 in (1940)
Month to date precipitation 2.33 2.55  
Year to date precipitation 5.40 6.42  
Snow  
Snow 0.00 in - - ()
Month to date snowfall 0.0  
Since 1 July snowfall 0.0  
Snow Depth 0.00 in    
Sea Level Pressure  
Sea Level Pressure 30.23 in    
Wind  
Wind Speed 14 mph (East)    
Max Wind Speed 23 mph    
Max Gust Speed 29 mph    
Visibility 10 miles    
Events      
T = Trace of Precipitation, MM = Missing Value Source: NWS Daily Summary

Daily Weather History Graph

Daily Weather History Graph

Search for Another Location

Airport or City:

Trip Planner

Search our weather history database for the weather conditions in past years. The results will help you decide how hot, cold, wet, or windy it might be!

Date:

Astronomy

Mar. 27, 2014 Rise Set
Actual Time 7:17 AM EDT 7:35 PM EDT
Civil Twilight 6:54 AM EDT 7:58 PM EDT
Nautical Twilight 6:27 AM EDT 8:25 PM EDT
Astronomical Twilight 6:00 AM EDT 8:52 PM EDT
Moon 4:48 AM EDT (3/27) 4:38 PM EDT (3/27)
Length of Visible Light 13h 04m
Length of Day
12h 17m
Waning Crescent, 13% of the Moon is Illuminated
Mar 27
Waning Crescent
Mar 30
New
Apr 7
First Quarter
Apr 15
Full
Apr 22
Last Quarter

Hourly Weather History & Observations

Time (EDT) Temp. Dew Point Humidity Pressure Visibility Wind Dir Wind Speed Gust Speed Precip Events Conditions
12:53 AM 63.0 °F 52.0 °F 67% 30.25 in 10.0 mi North 4.6 mph - N/A   Scattered Clouds
1:53 AM 63.0 °F 53.1 °F 70% 30.22 in 10.0 mi NNE 5.8 mph - N/A   Mostly Cloudy
2:53 AM 66.9 °F 52.0 °F 59% 30.20 in 10.0 mi East 15.0 mph - N/A   Mostly Cloudy
3:53 AM 66.9 °F 53.1 °F 61% 30.19 in 10.0 mi East 11.5 mph - N/A   Mostly Cloudy
4:53 AM 66.9 °F 54.0 °F 63% 30.18 in 10.0 mi ESE 12.7 mph - N/A   Clear
5:53 AM 66.9 °F 53.1 °F 61% 30.19 in 10.0 mi East 16.1 mph - N/A   Mostly Cloudy
6:53 AM 66.9 °F 52.0 °F 59% 30.20 in 10.0 mi ESE 15.0 mph - N/A   Mostly Cloudy
7:53 AM 66.9 °F 53.1 °F 61% 30.22 in 10.0 mi East 16.1 mph - N/A   Mostly Cloudy
8:53 AM 70.0 °F 54.0 °F 57% 30.24 in 10.0 mi East 15.0 mph - N/A   Mostly Cloudy
9:53 AM 73.0 °F 55.0 °F 53% 30.25 in 10.0 mi East 17.3 mph - N/A   Mostly Cloudy
10:53 AM 73.9 °F 55.9 °F 53% 30.28 in 10.0 mi ESE 15.0 mph - N/A   Mostly Cloudy
11:53 AM 73.0 °F 55.9 °F 55% 30.28 in 10.0 mi East 16.1 mph - N/A   Mostly Cloudy
12:53 PM 75.0 °F 55.9 °F 51% 30.27 in 10.0 mi East 15.0 mph 25.3 mph N/A   Mostly Cloudy
1:53 PM 75.9 °F 57.0 °F 52% 30.26 in 10.0 mi East 15.0 mph 26.5 mph N/A   Mostly Cloudy
2:53 PM 75.0 °F 55.9 °F 51% 30.26 in 10.0 mi ESE 15.0 mph - N/A   Mostly Cloudy
3:53 PM 75.9 °F 57.0 °F 52% 30.25 in 10.0 mi East 13.8 mph - N/A   Mostly Cloudy
4:53 PM 75.0 °F 57.9 °F 55% 30.25 in 10.0 mi ENE 11.5 mph - N/A   Mostly Cloudy
5:53 PM 73.9 °F 57.9 °F 57% 30.24 in 10.0 mi East 11.5 mph - N/A   Mostly Cloudy
6:53 PM 73.0 °F 57.0 °F 57% 30.22 in 10.0 mi ENE 12.7 mph - N/A   Mostly Cloudy
7:53 PM 73.0 °F 59.0 °F 61% 30.23 in 10.0 mi East 15.0 mph - N/A   Mostly Cloudy
8:53 PM 73.0 °F 59.0 °F 61% 30.23 in 10.0 mi East 15.0 mph - N/A   Mostly Cloudy
9:53 PM 72.0 °F 60.1 °F 66% 30.25 in 10.0 mi East 12.7 mph - N/A   Scattered Clouds
10:53 PM 73.0 °F 59.0 °F 61% 30.22 in 10.0 mi ESE 13.8 mph 25.3 mph N/A   Scattered Clouds
11:53 PM 72.0 °F 60.1 °F 66% 30.20 in 10.0 mi ESE 16.1 mph 25.3 mph N/A   Scattered Clouds